QPF
0.00 0.00 0.00 0.00 0.00 0.00 0.00 0.00 0.00 0.00 0.00 0.00 0.00 0.00 0.00 0.00 0.00 0.00 0.00 0.00 0.00 0.00 0.00 0.00 0.00 0.00 0.00 0.00 0.03 0.07 0.00 0.00 0.01 0.02 0.08 0.09 0.11 0.11 0.03 0.00 0.00 0.00 0.00 0.00 0.00
0.00 0.00 0.00 0.00 0.00 0.00 0.00 0.00 0.00 0.00 0.00 0.00 0.00 0.00 0.00 0.00 0.00 0.00 0.00 0.00 0.00 0.00 0.00 0.00 0.00 0.00 0.00 0.00 0.01 0.02 0.01 0.00 0.00 0.00 0.05 0.16 0.11 0.01 0.00 0.00 0.00 0.00 0.00 0.00 0.00
0.00 0.00 0.00 0.00 0.00 0.00 0.00 0.00 0.00 0.00 0.00 0.00 0.00 0.00 0.00 0.00 0.00 0.00 0.00 0.00 0.00 0.00 0.00 0.00 0.00 0.00 0.00 0.00 0.01 0.04 0.05 0.00 0.00 0.00 0.00 0.00 0.04 0.00 0.00 0.00 0.00 0.00 0.00 0.00 0.00
0.00 0.00 0.00 0.00 0.00 0.00 0.00 0.00 0.00 0.00 0.00 0.00 0.00 0.00 0.00 0.00 0.00 0.00 0.00 0.00 0.00 0.00 0.00 0.00 0.00 0.00 0.00 0.00 0.00 0.00 0.00 0.00 0.00 0.00 0.00 0.01 0.03 0.01 0.01 0.00 0.00 0.00 0.00 0.00 0.00
0.00 0.00 0.00 0.00 0.00 0.00 0.00 0.00 0.00 0.00 0.00 0.00 0.00 0.00 0.00 0.00 0.00 0.00 0.00 0.00 0.00 0.00 0.00 0.00 0.00 0.00 0.00 0.00 0.00 0.00 0.00 0.00 0.00 0.00 0.00 0.00 0.00 0.00 0.00 0.00 0.00 0.00 0.00 0.00 0.00
0.00 0.00 0.00 0.00 0.00 0.00 0.00 0.00 0.00 0.00 0.00 0.00 0.00 0.00 0.00 0.00 0.00 0.00 0.00 0.00 0.00 0.00 0.00 0.00 0.00 0.00 0.00 0.00 0.00 0.00 0.00 0.00 0.00 0.00 0.00 0.00 0.00 0.00 0.00 0.01 0.00 0.00 0.00 0.00 0.00
0.00 0.00 0.00 0.00 0.00 0.00 0.00 0.00 0.00 0.00 0.00 0.00 0.00 0.00 0.00 0.00 0.00 0.00 0.00 0.00 0.00 0.00 0.00 0.00 0.00 0.00 0.00 0.00 0.00 0.00 0.00 0.00 0.00 0.00 0.00 0.00 0.00 0.00 0.00 0.01 0.00 0.00 0.00 0.00 0.00
0.00 0.00 0.00 0.00 0.00 0.00 0.00 0.00 0.00 0.00 0.00 0.00 0.00 0.00 0.00 0.00 0.00 0.00 0.00 0.00 0.00 0.00 0.00 0.00 0.00 0.00 0.00 0.00 0.00 0.00 0.00 0.00 0.00 0.00 0.00 0.00 0.00 0.00 0.00 0.00 0.00 0.00 0.00 0.00 0.00
0.00 0.00 0.00 0.00 0.00 0.00 0.00 0.00 0.00 0.00 0.00 0.00 0.00 0.00 0.00 0.00 0.00 0.00 0.00 0.00 0.00 0.00 0.00 0.00 0.00 0.00 0.00 0.00 0.00 0.00 0.00 0.00 0.00 0.00 0.00 0.00 0.00 0.00 0.00 0.00 0.00 0.00 0.00 0.00 0.00
0.00 0.00 0.00 0.00 0.00 0.00 0.00 0.00 0.00 0.00 0.00 0.00 0.00 0.00 0.00 0.00 0.00 0.00 0.00 0.00 0.00 0.00 0.00 0.00 0.00 0.00 0.00 0.00 0.00 0.00 0.00 0.00 0.00 0.00 0.00 0.00 0.00 0.00 0.00 0.00 0.00 0.00 0.00 0.00 0.00
0.00 0.00 0.00 0.00 0.00 0.00 0.00 0.00 0.00 0.00 0.00 0.00 0.00 0.00 0.00 0.00 0.00 0.00 0.00 0.00 0.00 0.00 0.00 0.00 0.00 0.00 0.00 0.00 0.00 0.00 0.00 0.00 0.00 0.00 0.00 0.00 0.00 0.00 0.00 0.00 0.00 0.00 0.00 0.00 0.00
0.00 0.00 0.00 0.00 0.00 0.00 0.00 0.00 0.00 0.00 0.00 0.00 0.00 0.00 0.00 0.00 0.00 0.00 0.00 0.00 0.00 0.00 0.00 0.00 0.00 0.00 0.00 0.00 0.00 0.00 0.00 0.00 0.00 0.00 0.00 0.00 0.00 0.00 0.00 0.00 0.00 0.00 0.00 0.00 0.00
0.00 0.00 0.00 0.00 0.00 0.00 0.00 0.00 0.00 0.00 0.00 0.00 0.00 0.00 0.00 0.00 0.00 0.00 0.00 0.00 0.00 0.00 0.00 0.00 0.00 0.00 0.00 0.00 0.00 0.00 0.00 0.00 0.00 0.00 0.00 0.00 0.00 0.00 0.00 0.01 0.01 0.00 0.00 0.00 0.00
0.00 0.00 0.00 0.00 0.00 0.00 0.00 0.00 0.00 0.00 0.00 0.00 0.00 0.00 0.00 0.00 0.00 0.00 0.00 0.00 0.00 0.00 0.00 0.00 0.00 0.00 0.00 0.00 0.00 0.00 0.00 0.00 0.00 0.00 0.00 0.00 0.00 0.00 0.00 0.00 0.00 0.00 0.00 0.00 0.00
0.00 0.00 0.00 0.00 0.00 0.00 0.00 0.00 0.00 0.00 0.00 0.00 0.00 0.00 0.00 0.00 0.00 0.00 0.00 0.00 0.00 0.00 0.00 0.00 0.00 0.00 0.00 0.00 0.00 0.00 0.00 0.00 0.00 0.00 0.00 0.00 0.00 0.00 0.00 0.00 0.00 0.00 0.00 0.00 0.00
0.00 0.00 0.00 0.00 0.00 0.00 0.00 0.00 0.00 0.00 0.00 0.00 0.00 0.00 0.00 0.00 0.00 0.00 0.00 0.00 0.00 0.00 0.00 0.00 0.00 0.00 0.00 0.00 0.00 0.00 0.00 0.00 0.00 0.00 0.00 0.00 0.00 0.00 0.00 0.00 0.00 0.00 0.00 0.00 0.00
0.00 0.00 0.00 0.00 0.00 0.00 0.00 0.00 0.00 0.00 0.00 0.00 0.00 0.00 0.00 0.00 0.00 0.00 0.00 0.00 0.00 0.00 0.00 0.00 0.00 0.00 0.00 0.00 0.00 0.00 0.00 0.00 0.00 0.00 0.00 0.00 0.00 0.00 0.00 0.00 0.00 0.00 0.00 0.00 0.00
0.00 0.00 0.00 0.00 0.00 0.00 0.00 0.00 0.00 0.00 0.00 0.00 0.00 0.00 0.00 0.00 0.00 0.00 0.00 0.00 0.00 0.00 0.00 0.00 0.00 0.00 0.00 0.00 0.00 0.00 0.00 0.00 0.00 0.00 0.00 0.00 0.00 0.00 0.00 0.00 0.00 0.00 0.00 0.00 0.00
0.00 0.00 0.00 0.00 0.00 0.00 0.00 0.00 0.00 0.00 0.00 0.00 0.00 0.00 0.00 0.00 0.00 0.00 0.00 0.00 0.00 0.00 0.00 0.00 0.00 0.00 0.00 0.00 0.00 0.00 0.00 0.00 0.00 0.00 0.00 0.00 0.00 0.00 0.00 0.00 0.00 0.00 0.00 0.00 0.00
0.00 0.00 0.00 0.00 0.00 0.00 0.00 0.00 0.00 0.00 0.00 0.00 0.00 0.00 0.00 0.00 0.00 0.00 0.00 0.00 0.00 0.00 0.00 0.00 0.00 0.00 0.00 0.00 0.00 0.00 0.00 0.00 0.00 0.00 0.00 0.00 0.00 0.00 0.00 0.00 0.00 0.00 0.00 0.00 0.00
0.00 0.00 0.00 0.00 0.00 0.00 0.00 0.00 0.00 0.00 0.00 0.00 0.00 0.00 0.00 0.00 0.00 0.00 0.00 0.00 0.00 0.00 0.00 0.00 0.00 0.00 0.00 0.00 0.00 0.00 0.00 0.00 0.00 0.00 0.00 0.00 0.00 0.00 0.00 0.00 0.00 0.00 0.00 0.00 0.00
0.00 0.00 0.00 0.00 0.00 0.00 0.00 0.00 0.00 0.00 0.00 0.00 0.00 0.00 0.00 0.00 0.00 0.00 0.00 0.00 0.00 0.00 0.01 0.02 0.00 0.00 0.00 0.00 0.00 0.00 0.00 0.00 0.00 0.00 0.00 0.00 0.00 0.00 0.00 0.00 0.00 0.00 0.00 0.00 0.00
0.00 0.00 0.00 0.00 0.00 0.00 0.00 0.00 0.00 0.00 0.00 0.00 0.00 0.00 0.00 0.00 0.00 0.00 0.00 0.00 0.00 0.00 0.01 0.03 0.04 0.00 0.00 0.00 0.00 0.00 0.00 0.00 0.00 0.00 0.00 0.00 0.00 0.00 0.00 0.00 0.00 0.00 0.00 0.00 0.00
0.00 0.00 0.00 0.00 0.00 0.00 0.00 0.00 0.00 0.00 0.00 0.00 0.00 0.00 0.00 0.00 0.00 0.00 0.00 0.00 0.00 0.00 0.01 0.02 0.03 0.01 0.00 0.00 0.00 0.00 0.00 0.00 0.00 0.00 0.00 0.00 0.00 0.00 0.00 0.00 0.00 0.00 0.00 0.00 0.00
0.00 0.00 0.00 0.00 0.00 0.00 0.00 0.00 0.00 0.00 0.00 0.00 0.00 0.00 0.00 0.00 0.00 0.00 0.00 0.00 0.00 0.00 0.01 0.02 0.01 0.00 0.00 0.00 0.00 0.00 0.00 0.00 0.00 0.00 0.00 0.00 0.00 0.00 0.00 0.00 0.00 0.00 0.00 0.00 0.00
0.00 0.00 0.00 0.00 0.00 0.00 0.00 0.00 0.00 0.00 0.00 0.00 0.01 0.00 0.00 0.00 0.00 0.00 0.00 0.00 0.00 0.01 0.03 0.03 0.01 0.00 0.00 0.00 0.00 0.00 0.00 0.00 0.00 0.00 0.00 0.00 0.00 0.00 0.00 0.00 0.00 0.00 0.00 0.00 0.00
0.00 0.00 0.00 0.00 0.00 0.01 0.00 0.03 0.03 0.09 0.04 0.04 0.02 0.00 0.00 0.00 0.00 0.00 0.00 0.00 0.00 0.00 0.03 0.03 0.02 0.00 0.00 0.00 0.00 0.00 0.00 0.00 0.00 0.00 0.00 0.00 0.00 0.00 0.00 0.00 0.00 0.00 0.00 0.00 0.00
MSLP
1018.57 1018.02 1017.42 1016.87 1016.29 1015.78 1015.30 1014.78 1014.24 1013.65 1013.26 1012.89 1012.54 1012.40 1012.14 1011.88 1011.66 1011.35 1010.29 1007.68 1007.55 1007.11 1007.24 1008.07 1008.80 1008.97 1009.22 1009.46 1009.37 1009.73 1009.95 1009.30 1008.32 1007.96 1007.74 1007.42 1007.26 1007.31 1007.58 1008.31 1008.74 1009.33 1010.05 1011.48 1012.45
1018.45 1017.86 1017.27 1016.68 1016.07 1015.45 1014.92 1014.44 1013.90 1013.34 1012.82 1012.54 1012.28 1012.03 1011.82 1011.70 1011.32 1009.69 1005.89 1006.05 1006.59 1006.79 1007.17 1007.67 1008.40 1008.87 1009.30 1009.20 1009.28 1009.50 1009.32 1008.00 1006.89 1006.74 1007.25 1006.64 1007.11 1007.36 1007.60 1008.01 1009.28 1009.80 1010.89 1011.90 1012.60
1018.25 1017.69 1017.07 1016.39 1015.76 1015.17 1014.52 1013.86 1013.40 1012.92 1012.47 1012.06 1011.99 1011.76 1011.60 1011.57 1010.80 1006.04 1003.77 1004.97 1005.53 1006.16 1006.54 1007.18 1007.93 1008.53 1009.00 1008.90 1008.75 1008.53 1008.08 1006.81 1006.13 1005.55 1006.12 1006.67 1007.14 1007.01 1007.43 1008.26 1008.59 1009.31 1010.62 1011.73 1012.64
1018.17 1017.51 1016.84 1016.15 1015.39 1014.68 1014.04 1013.35 1012.72 1012.34 1012.08 1011.72 1011.56 1011.35 1011.37 1011.30 1008.54 1004.14 1003.57 1004.37 1005.34 1005.99 1006.46 1007.12 1007.90 1008.41 1008.72 1008.50 1008.08 1008.04 1006.90 1006.19 1005.24 1005.38 1005.48 1005.86 1006.53 1006.71 1007.10 1007.53 1008.12 1008.90 1009.50 1010.96 1012.26
1018.08 1017.33 1016.53 1015.74 1014.98 1014.18 1013.40 1012.68 1012.18 1011.67 1011.48 1011.44 1011.27 1011.06 1011.34 1010.53 1007.14 1004.23 1004.18 1004.69 1005.61 1006.11 1006.12 1006.42 1007.22 1007.87 1007.93 1007.66 1007.77 1007.52 1006.57 1005.80 1005.23 1005.08 1005.20 1005.42 1005.60 1006.17 1007.10 1007.54 1008.76 1009.87 1010.78 1011.11 1012.04
1018.00 1017.17 1016.29 1015.44 1014.59 1013.59 1012.70 1011.92 1011.74 1011.06 1010.76 1010.88 1011.14 1011.27 1011.08 1009.39 1005.20 1004.80 1004.66 1005.43 1005.56 1005.72 1006.15 1006.32 1006.41 1006.80 1007.20 1007.12 1006.93 1006.14 1006.33 1005.59 1005.04 1004.42 1004.92 1005.28 1005.58 1005.83 1007.33 1008.06 1009.62 1009.83 1010.57 1011.33 1011.58
1017.91 1017.10 1016.18 1015.15 1014.34 1013.21 1012.32 1011.16 1011.23 1010.72 1009.96 1010.28 1010.76 1010.99 1010.74 1006.89 1005.19 1005.41 1005.67 1005.60 1005.45 1005.29 1005.79 1005.82 1006.12 1006.41 1006.62 1006.66 1006.15 1006.16 1006.20 1005.52 1004.93 1004.42 1004.50 1004.85 1005.76 1006.07 1007.21 1008.32 1009.63 1009.94 1010.71 1011.34 1011.51
1017.86 1016.92 1015.96 1014.78 1013.89 1012.93 1011.80 1010.72 1010.90 1010.30 1010.24 1010.42 1010.59 1010.65 1009.34 1006.41 1005.85 1005.62 1005.44 1005.46 1005.64 1005.80 1005.86 1005.74 1006.28 1006.58 1006.62 1006.36 1005.90 1005.92 1006.32 1006.00 1004.12 1004.34 1004.19 1004.90 1005.59 1006.44 1007.27 1008.18 1009.60 1010.25 1010.58 1011.14 1011.41
1017.66 1016.87 1015.88 1014.60 1013.76 1012.91 1011.57 1010.31 1010.30 1010.04 1010.16 1010.24 1010.51 1010.44 1008.00 1005.96 1005.77 1004.92 1004.94 1004.81 1005.31 1005.95 1006.18 1006.15 1006.72 1006.84 1006.79 1006.85 1006.86 1006.31 1006.06 1005.56 1004.56 1003.96 1004.18 1004.82 1005.46 1006.49 1007.18 1008.26 1009.37 1010.00 1010.12 1010.32 1010.91
1017.24 1016.42 1015.53 1014.22 1013.37 1012.54 1011.07 1009.69 1009.86 1009.98 1010.16 1010.19 1010.19 1010.32 1007.65 1006.37 1005.36 1004.85 1004.24 1004.44 1004.94 1005.88 1006.82 1006.68 1006.87 1006.96 1007.00 1006.97 1006.11 1006.29 1005.84 1005.14 1004.50 1003.90 1004.15 1004.61 1005.02 1006.13 1006.99 1007.91 1008.97 1009.58 1009.97 1009.96 1010.19
1017.36 1016.31 1015.48 1013.98 1013.23 1012.42 1011.45 1010.02 1010.63 1010.25 1009.82 1009.88 1009.58 1009.41 1007.39 1005.78 1004.85 1004.74 1004.18 1004.41 1004.62 1005.60 1006.20 1006.31 1006.78 1005.90 1004.87 1005.59 1005.98 1005.76 1005.39 1004.93 1003.96 1003.55 1003.92 1004.03 1004.70 1005.85 1006.57 1007.76 1008.46 1009.05 1009.31 1009.39 1009.41
1017.24 1016.17 1015.24 1013.86 1013.04 1012.34 1011.98 1011.87 1012.21 1012.39 1010.63 1009.14 1008.45 1008.35 1007.10 1006.28 1005.63 1004.80 1004.16 1004.52 1004.73 1005.02 1005.64 1006.22 1005.04 1004.70 1005.73 1005.88 1005.95 1005.73 1005.40 1004.77 1003.87 1003.42 1003.62 1003.75 1004.18 1004.88 1005.92 1006.06 1006.43 1007.37 1008.06 1008.15 1008.74
1017.26 1016.20 1014.73 1013.48 1012.84 1012.48 1012.70 1011.93 1011.98 1012.01 1012.03 1009.20 1008.16 1007.56 1006.68 1006.45 1005.94 1005.28 1004.72 1004.47 1004.63 1005.00 1005.03 1004.69 1003.88 1004.73 1005.07 1005.20 1005.39 1005.20 1005.04 1004.57 1004.00 1003.60 1003.16 1003.59 1004.07 1004.50 1005.30 1006.10 1006.88 1007.04 1007.52 1008.27 1007.78
1016.35 1015.46 1014.96 1013.92 1012.88 1013.42 1012.48 1011.69 1011.52 1011.45 1011.71 1009.35 1008.00 1007.17 1006.92 1006.12 1005.95 1005.36 1005.06 1004.82 1004.58 1004.59 1005.04 1004.61 1003.57 1003.50 1003.66 1004.00 1004.32 1004.56 1004.04 1004.22 1004.29 1004.46 1004.02 1003.42 1003.91 1003.89 1004.56 1005.44 1005.79 1006.08 1006.38 1007.12 1007.30
1016.26 1015.29 1014.82 1014.42 1013.97 1013.28 1012.20 1011.31 1010.85 1011.24 1011.03 1009.15 1008.57 1007.44 1007.62 1007.80 1007.52 1006.16 1005.59 1005.07 1005.20 1004.98 1004.80 1003.02 1002.86 1002.92 1002.84 1002.23 1003.31 1002.99 1003.67 1004.19 1004.42 1004.70 1004.63 1003.61 1004.16 1003.47 1003.67 1004.51 1004.27 1004.41 1004.90 1005.39 1006.06
1016.33 1015.18 1014.68 1014.54 1014.31 1012.99 1011.83 1010.98 1011.04 1011.91 1010.77 1009.86 1009.21 1008.72 1008.75 1008.66 1008.25 1007.71 1006.87 1006.34 1005.94 1005.79 1004.54 1004.27 1002.88 1002.12 1001.57 1002.17 1002.69 1003.03 1003.62 1004.32 1004.67 1005.21 1004.51 1003.32 1003.74 1002.86 1002.68 1002.09 1002.23 1002.54 1003.30 1003.71 1004.66
1016.29 1014.86 1014.24 1014.11 1013.46 1012.05 1011.47 1011.52 1012.15 1011.92 1011.08 1010.99 1010.50 1010.02 1009.94 1009.87 1009.53 1009.29 1009.11 1009.39 1009.04 1007.77 1006.88 1005.21 1003.23 1002.55 1001.73 1001.80 1002.36 1002.84 1003.64 1005.08 1005.50 1005.16 1003.63 1003.05 1002.95 1001.57 1000.94 1000.41 1000.48 1000.60 1001.42 1002.04 1003.26
1016.16 1014.84 1014.10 1013.24 1012.25 1012.09 1012.11 1012.61 1012.93 1012.60 1012.02 1011.55 1011.24 1010.93 1011.05 1011.02 1010.93 1010.83 1010.44 1010.88 1011.22 1010.62 1009.57 1008.44 1005.42 1003.01 1001.56 1001.10 1001.55 1002.06 1002.98 1003.77 1004.00 1004.20 1003.65 1002.77 1001.32 1000.13 999.62 998.75 999.12 999.50 999.70 1001.00 1002.16
1015.92 1014.77 1014.10 1012.61 1012.13 1012.08 1013.15 1013.91 1013.68 1013.12 1012.55 1012.14 1011.80 1011.83 1011.92 1011.88 1011.85 1011.80 1011.82 1011.96 1012.42 1012.27 1011.64 1010.64 1008.22 1005.00 1003.32 1001.16 1000.94 1001.08 1001.46 1002.54 1003.53 1004.12 1003.38 1001.76 1000.64 999.66 999.09 998.76 998.56 998.91 999.87 1000.68 1001.06
1017.06 1016.18 1014.23 1012.46 1012.14 1012.73 1014.20 1014.63 1014.08 1013.66 1012.90 1012.29 1012.49 1012.62 1012.82 1012.90 1012.83 1012.70 1012.48 1012.46 1012.44 1012.90 1012.81 1012.31 1010.48 1007.04 1004.19 1002.26 1000.42 999.96 1001.13 1002.34 1002.69 1003.24 1002.74 1001.38 1000.02 998.53 998.93 998.72 998.36 998.16 998.82 999.46 999.93
1017.49 1016.44 1014.11 1012.62 1012.69 1014.11 1015.60 1015.65 1014.63 1013.96 1013.49 1013.05 1013.04 1013.16 1013.37 1013.59 1013.53 1013.29 1013.02 1012.99 1013.00 1013.09 1012.87 1013.04 1011.94 1008.51 1006.58 1002.88 1001.10 1000.83 1000.32 1000.65 1001.68 1002.20 1001.75 1001.05 998.78 997.30 997.66 997.84 997.92 997.46 997.54 998.01 998.52
1018.82 1017.52 1014.93 1013.52 1014.95 1016.74 1017.08 1016.41 1015.32 1014.28 1013.74 1013.42 1013.33 1013.50 1013.74 1013.99 1014.07 1013.87 1013.52 1013.24 1013.24 1013.36 1013.35 1013.65 1012.75 1010.96 1007.45 1003.48 1003.16 1002.62 1000.80 1000.87 1000.76 1001.40 1001.25 1000.08 998.02 996.74 996.49 996.87 996.78 996.66 996.59 996.70 996.96
1019.77 1018.75 1015.97 1015.43 1017.68 1018.60 1018.12 1017.04 1015.81 1014.86 1014.42 1014.22 1013.96 1014.00 1014.18 1014.50 1014.73 1014.40 1014.08 1013.76 1013.78 1013.58 1013.82 1014.04 1013.52 1012.08 1007.83 1005.16 1003.32 1003.20 1001.26 1000.57 1000.44 1000.31 1000.28 999.72 997.10 996.87 996.62 996.45 996.83 996.49 996.15 996.15 996.42
1020.38 1019.81 1018.58 1018.58 1019.38 1019.74 1019.26 1017.76 1016.27 1015.12 1014.75 1014.78 1014.60 1014.45 1014.88 1014.90 1014.84 1014.74 1014.50 1014.13 1014.14 1014.04 1013.98 1014.08 1013.80 1012.78 1010.72 1008.61 1008.48 1006.29 1003.74 1002.69 1002.06 1000.46 999.68 998.18 998.42 997.38 996.74 996.77 996.32 996.76 995.99 995.47 995.68
1020.76 1021.14 1020.85 1020.40 1020.15 1020.20 1019.82 1018.58 1017.16 1016.12 1015.46 1015.12 1014.98 1015.10 1015.68 1015.58 1015.20 1014.94 1014.54 1014.46 1014.49 1014.44 1014.52 1014.48 1013.92 1012.94 1011.56 1010.26 1008.99 1007.10 1005.37 1003.28 1002.64 1000.07 998.60 998.36 997.94 997.61 996.74 996.52 996.53 995.84 995.29 994.80 994.16
1021.06 1021.22 1021.15 1020.75 1020.31 1020.03 1019.36 1018.34 1017.62 1016.70 1016.50 1015.63 1015.44 1015.20 1015.12 1015.17 1014.80 1014.78 1014.42 1014.42 1014.22 1014.99 1014.88 1014.94 1014.00 1012.94 1011.07 1009.28 1007.60 1006.36 1004.66 1003.35 1001.78 1000.49 998.93 998.11 997.38 996.72 997.23 997.08 996.82 996.41 994.94 993.47 992.58
1020.92 1020.84 1020.84 1020.45 1020.05 1019.88 1019.33 1018.65 1017.90 1017.46 1016.45 1015.60 1015.46 1015.16 1014.45 1013.91 1013.72 1013.73 1013.75 1013.76 1013.96 1014.24 1014.66 1014.84 1014.40 1012.94 1010.68 1008.32 1006.51 1006.08 1004.37 1002.49 1001.06 1000.96 1000.17 999.40 998.63 998.10 997.74 997.82 998.14 997.11 995.43 994.05 992.92
Thickness
5712 5715 5719 5723 5727 5731 5733 5737 5741 5745 5747 5750 5753 5754 5757 5758 5759 5762 5768 5793 5794 5800 5800 5792 5785 5784 5784 5777 5781 5776 5757 5750 5764 5768 5775 5791 5791 5801 5804 5789 5793 5792 5786 5778 5777
5710 5713 5717 5721 5725 5729 5734 5737 5741 5745 5749 5751 5753 5755 5756 5757 5758 5768 5804 5804 5801 5800 5795 5786 5776 5779 5769 5774 5775 5764 5752 5768 5791 5792 5779 5782 5792 5796 5792 5790 5778 5780 5781 5779 5776
5707 5710 5714 5719 5723 5727 5732 5737 5742 5746 5749 5752 5753 5755 5755 5755 5756 5790 5818 5810 5807 5801 5799 5793 5786 5778 5767 5776 5774 5771 5761 5787 5800 5809 5802 5791 5787 5800 5788 5776 5786 5779 5776 5778 5773
5702 5707 5711 5716 5721 5726 5730 5736 5741 5745 5747 5750 5752 5754 5754 5753 5763 5807 5818 5811 5805 5799 5795 5787 5778 5768 5763 5763 5778 5764 5785 5795 5808 5810 5804 5793 5796 5794 5793 5792 5797 5793 5792 5783 5773
5698 5703 5708 5714 5719 5725 5731 5736 5740 5744 5746 5747 5750 5752 5750 5751 5765 5807 5808 5805 5797 5793 5788 5784 5776 5769 5762 5769 5774 5770 5782 5795 5804 5808 5805 5805 5802 5798 5792 5798 5793 5788 5782 5780 5775
5695 5700 5707 5713 5718 5726 5732 5737 5738 5743 5745 5745 5744 5745 5747 5742 5792 5798 5800 5793 5791 5788 5782 5783 5781 5778 5767 5770 5775 5786 5784 5791 5801 5809 5804 5797 5799 5802 5794 5796 5781 5785 5781 5778 5778
5692 5697 5703 5710 5716 5723 5730 5739 5737 5740 5745 5743 5740 5741 5739 5759 5788 5786 5783 5783 5787 5786 5777 5783 5781 5775 5774 5772 5785 5781 5770 5786 5795 5801 5799 5808 5785 5790 5796 5791 5779 5782 5778 5776 5778
5687 5692 5698 5706 5712 5718 5727 5735 5732 5736 5735 5736 5735 5736 5739 5770 5774 5774 5779 5777 5779 5777 5775 5777 5774 5768 5768 5777 5776 5767 5763 5751 5793 5800 5807 5798 5771 5790 5797 5789 5776 5777 5778 5775 5776
5682 5686 5691 5700 5705 5710 5720 5729 5727 5728 5728 5728 5726 5727 5733 5766 5764 5776 5776 5772 5770 5766 5765 5768 5761 5753 5759 5748 5737 5750 5741 5756 5774 5803 5804 5793 5780 5790 5796 5787 5777 5777 5781 5782 5779
5677 5681 5685 5694 5698 5703 5714 5723 5720 5717 5716 5717 5718 5715 5738 5744 5757 5763 5774 5769 5761 5753 5742 5744 5741 5731 5731 5726 5726 5731 5746 5761 5764 5790 5793 5785 5784 5789 5793 5787 5780 5779 5780 5784 5783
5667 5672 5674 5684 5687 5692 5698 5708 5697 5694 5703 5701 5705 5706 5724 5743 5753 5749 5760 5753 5751 5739 5723 5732 5718 5729 5756 5756 5755 5757 5757 5760 5780 5794 5789 5788 5788 5782 5791 5784 5780 5781 5782 5784 5787
5659 5663 5664 5670 5673 5676 5675 5674 5667 5665 5666 5693 5697 5699 5714 5724 5715 5729 5746 5732 5730 5723 5726 5713 5722 5753 5745 5742 5742 5742 5741 5751 5775 5789 5786 5785 5785 5792 5790 5794 5796 5791 5789 5792 5791
5646 5648 5653 5659 5661 5660 5653 5657 5653 5650 5639 5661 5676 5684 5695 5704 5695 5704 5723 5724 5718 5713 5717 5715 5745 5746 5738 5734 5731 5733 5733 5748 5761 5776 5789 5781 5772 5783 5788 5788 5788 5792 5792 5789 5796
5640 5640 5638 5643 5649 5636 5642 5643 5641 5636 5611 5635 5651 5661 5671 5685 5677 5697 5704 5707 5708 5706 5708 5708 5745 5734 5734 5731 5737 5714 5758 5761 5759 5749 5739 5779 5729 5772 5782 5780 5789 5792 5795 5793 5797
5630 5631 5629 5627 5626 5628 5634 5635 5637 5628 5593 5634 5630 5654 5650 5643 5651 5668 5681 5687 5684 5691 5698 5715 5728 5723 5725 5745 5744 5748 5757 5750 5755 5743 5744 5757 5730 5755 5784 5770 5791 5801 5804 5805 5805
5618 5621 5619 5616 5613 5621 5626 5631 5627 5598 5589 5607 5618 5617 5621 5622 5631 5641 5648 5662 5670 5670 5695 5695 5728 5730 5741 5747 5743 5756 5745 5739 5741 5726 5710 5748 5732 5739 5765 5792 5804 5815 5814 5817 5814
5607 5615 5613 5609 5610 5620 5622 5615 5590 5579 5603 5590 5591 5598 5602 5604 5605 5610 5613 5608 5609 5628 5631 5666 5699 5717 5732 5723 5730 5731 5711 5678 5679 5682 5703 5747 5731 5763 5789 5816 5817 5824 5825 5829 5823
5599 5605 5605 5606 5613 5611 5607 5592 5578 5585 5581 5585 5585 5585 5582 5586 5586 5585 5589 5584 5584 5594 5600 5602 5649 5703 5727 5724 5717 5715 5708 5674 5662 5672 5712 5743 5714 5756 5808 5832 5835 5834 5839 5833 5825
5592 5596 5597 5604 5605 5604 5587 5561 5565 5570 5572 5566 5569 5561 5562 5569 5569 5566 5567 5563 5567 5572 5578 5587 5618 5662 5683 5729 5731 5716 5708 5729 5700 5701 5704 5738 5750 5788 5804 5812 5826 5828 5827 5822 5826
5575 5574 5583 5598 5598 5587 5565 5556 5556 5555 5557 5556 5545 5548 5541 5541 5543 5546 5551 5554 5563 5561 5564 5573 5591 5635 5670 5700 5727 5730 5733 5700 5692 5677 5677 5710 5735 5769 5778 5793 5817 5826 5826 5829 5832
5561 5565 5582 5590 5586 5564 5540 5534 5545 5545 5540 5535 5532 5529 5528 5525 5524 5528 5533 5537 5543 5549 5557 5558 5574 5617 5637 5675 5708 5708 5718 5723 5720 5702 5703 5690 5730 5790 5795 5805 5814 5831 5841 5841 5843
5539 5555 5571 5577 5548 5522 5523 5525 5531 5530 5527 5523 5522 5519 5514 5510 5507 5510 5513 5518 5533 5533 5537 5545 5553 5584 5619 5676 5684 5679 5713 5708 5710 5695 5694 5723 5742 5803 5812 5812 5825 5834 5844 5850 5856
5531 5528 5554 5554 5515 5500 5504 5513 5516 5514 5510 5505 5504 5503 5500 5494 5490 5492 5498 5506 5511 5522 5522 5534 5538 5569 5627 5664 5678 5672 5710 5733 5725 5711 5705 5718 5750 5797 5806 5814 5816 5828 5841 5849 5853
5524 5522 5524 5517 5500 5490 5481 5491 5502 5505 5500 5493 5490 5488 5479 5480 5477 5482 5483 5492 5497 5506 5519 5526 5532 5549 5584 5608 5604 5624 5659 5673 5685 5710 5706 5727 5746 5771 5794 5802 5818 5816 5833 5845 5850
5513 5508 5500 5491 5489 5475 5470 5472 5485 5484 5486 5483 5477 5474 5461 5452 5463 5461 5472 5478 5484 5493 5500 5507 5520 5540 5564 5586 5601 5622 5642 5668 5670 5716 5724 5747 5741 5763 5787 5801 5811 5823 5833 5840 5854
5509 5503 5493 5484 5479 5477 5469 5475 5468 5476 5466 5467 5462 5463 5458 5446 5452 5458 5469 5465 5470 5471 5481 5490 5513 5525 5565 5604 5619 5629 5653 5667 5686 5711 5732 5752 5756 5783 5786 5795 5802 5810 5828 5847 5865
5507 5502 5496 5496 5488 5476 5469 5462 5457 5452 5457 5464 5456 5451 5455 5459 5462 5460 5457 5460 5465 5461 5472 5485 5499 5527 5560 5605 5629 5630 5651 5676 5698 5692 5713 5735 5755 5766 5772 5782 5787 5804 5825 5847 5864